Location: Caltech
(34.1382°N, 118.1253°W)
Time: 05:17:30
(UTC-08:00)

Cosmos 2360 Rocket - Visible Passes

Search period start: 28 November 2014 00:00
Search period end: 08 December 2014 00:00
Orbit: 834 x 846 km, 71.0° (Epoch: 28 November)

Date Brightness Start Highest point End Pass type
(mag) Time Alt. Az. Time Alt. Az. Time Alt. Az.
28 Nov 4.5 19:26:35 10° NNW 19:27:09 13° NNW 19:27:09 13° NNW visible
29 Nov 3.9 19:11:00 10° NNW 19:12:47 21° NNW 19:12:47 21° NNW visible
30 Nov 3.0 18:55:26 10° NNW 18:58:47 37° N 18:58:47 37° N visible
01 Dec 2.0 18:39:51 10° NNW 18:45:24 65° ENE 18:45:24 65° ENE visible
01 Dec 5.0 20:26:13 10° WNW 20:27:21 12° W 20:27:21 12° W visible
02 Dec 2.1 18:24:17 10° NNW 18:29:51 60° ENE 18:33:55 18° SE visible
02 Dec 4.8 20:10:18 10° WNW 20:13:13 14° W 20:16:07 10° SW visible
03 Dec 2.2 18:08:43 10° NNW 18:14:14 56° ENE 18:19:43 10° SE visible
03 Dec 4.8 19:54:27 10° WNW 19:57:39 16° W 20:00:52 10° SW visible
04 Dec 2.3 17:53:09 10° N 17:58:38 52° ENE 18:04:04 10° SE visible
04 Dec 4.8 19:38:38 10° WNW 19:42:06 17° W 19:45:34 10° SW visible
05 Dec 2.3 17:37:35 10° N 17:43:02 49° ENE 17:48:25 10° SE visible
05 Dec 4.7 19:22:50 10° WNW 19:26:33 18° W 19:30:14 10° SW visible
06 Dec 2.4 17:22:02 10° N 17:27:25 45° ENE 17:32:45 10° SE visible
06 Dec 4.7 19:07:04 10° NW 19:10:59 20° W 19:14:53 10° SW visible
07 Dec 2.5 17:06:29 10° N 17:11:48 42° ENE 17:17:05 10° SE visible
07 Dec 4.6 18:51:19 10° NW 18:55:25 21° W 18:59:31 10° SSW visible
